FW2523 Weather Reports


time (UTC)temp
C
wind
direction
speed
KPH
gust
KPH
rain 1hr
cm
rain 24hr
cm
rain mn
cm
humidity
%
barometer
mb
20260508184547 21 143 3.2 14.5 0.00 0.00 0.00 33 1016.7
20260508183044 20 87 0.0 4.8 0.00 0.00 0.00 34 1016.9
20260508181607 21 118 4.8 9.7 0.00 0.00 0.00 30 1017.1
20260508180047 21 310 1.6 6.4 0.00 0.00 0.00 34 1017.2
20260508180043 21 327 1.6 6.4 0.00 0.00 0.00 34 1017.2
20260508174538 20 340 1.6 8.0 0.00 0.00 0.00 34 1017.3
20260508173040 21 136 1.6 6.4 0.00 0.00 0.00 33 1017.7
20260508171506 20 288 0.0 4.8 0.00 0.00 0.00 33 1017.7
20260508170006 20 147 1.6 11.3 0.00 0.00 0.00 32 1017.9
20260508164502 20 190 0.0 8.0 0.00 0.00 0.00 35 1018.3
20260508163002 20 360 0.0 6.4 0.00 0.00 0.00 30 1018.4
20260508161602 20 134 1.6 8.0 0.00 0.00 0.00 34 1018.5
20260508160100 19 305 3.2 6.4 0.00 0.00 0.00 34 1018.7
20260508154559 20 312 1.6 6.4 0.00 0.00 0.00 34 1019.0
20260508153102 19 145 1.6 11.3 0.00 0.00 0.00 31 1019.0
20260508151604 19 320 0.0 4.8 0.00 0.13 0.00 36 1019.1
20260508150055 18 302 0.0 11.3 0.00 0.13 0.00 39 1019.1
20260508144558 18 265 1.6 4.8 0.00 0.13 0.00 36 1019.3
20260508143054 17 300 1.6 8.0 0.00 0.13 0.00 40 1019.3
20260508141559 17 143 0.0 8.0 0.00 0.15 0.00 42 1019.5
20260508140055 16 360 3.2 9.7 0.00 0.15 0.00 43 1019.5
20260508134545 15 360 1.6 8.0 0.00 0.15 0.00 45 1019.4
20260508133050 15 360 1.6 6.4 0.00 0.15 0.00 42 1019.3
20260508131543 14 360 1.6 6.4 0.00 0.36 0.00 45 1019.3
20260508130044 13 360 0.0 6.4 0.00 0.36 0.00 49 1019.2
20260508124510 12 360 0.0 0.0 0.00 0.36 0.00 50 1019.0
20260508123009 11 360 0.0 0.0 0.00 0.36 0.00 47 1018.9
20260508121540 10 360 0.0 0.0 0.00 0.48 0.00 52 1018.8
20260508120039 9 360 0.0 0.0 0.00 0.48 0.00 52 1018.5
20260508114534 8 360 0.0 0.0 0.00 0.48 0.00 51 1018.4
20260508113032 8 360 0.0 0.0 0.00 0.48 0.00 50 1018.1
20260508111543 8 360 0.0 0.0 0.00 0.51 0.00 50 1017.8
20260508110027 8 360 0.0 0.0 0.00 0.51 0.00 47 1017.5
20260508104558 8 360 0.0 1.6 0.00 0.51 0.00 47 1017.2
20260508103123 8 360 0.0 1.6 0.00 0.51 0.00 47 1016.9
20260508101556 8 360 0.0 1.6 0.00 0.51 0.00 46 1016.5
20260508100047 8 360 0.0 1.6 0.00 0.51 0.00 46 1016.5
20260508094603 8 360 0.0 0.0 0.00 0.51 0.00 47 1016.3
20260508093044 8 360 0.0 0.0 0.00 0.51 0.00 48 1016.3
20260508091513 8 360 0.0 0.0 0.00 0.53 0.00 48 1016.4
20260508090011 8 360 0.0 1.6 0.00 0.53 0.00 48 1016.1
20260508084508 9 360 0.0 0.0 0.00 0.53 0.00 50 1016.1
20260508083005 9 360 0.0 0.0 0.00 0.53 0.00 51 1015.8
20260508081505 9 360 0.0 0.0 0.00 0.94 0.00 53 1015.6
20260508080002 9 360 0.0 0.0 0.00 0.94 0.00 55 1015.6
20260508074555 10 360 0.0 0.0 0.00 0.94 0.00 56 1015.5
20260508073054 10 360 0.0 0.0 0.00 0.94 0.00 57 1015.5
20260508071552 10 360 0.0 0.0 0.00 1.17 0.00 58 1015.4
20260508070050 10 360 0.0 0.0 0.00 1.17 0.00 60 1015.3
20260508064554 10 360 0.0 0.0 0.00 1.17 0.00 60 1015.2
20260508063045 11 360 0.0 0.0 0.00 1.17 0.00 60 1015.1
20260508061544 11 360 0.0 0.0 0.00 1.75 0.00 61 1015.1
20260508060041 11 360 0.0 0.0 0.00 1.75 0.00 62 1015.1
20260508054537 11 360 0.0 0.0 0.00 1.75 0.00 63 1015.2
20260508053036 11 360 0.0 0.0 0.00 1.75 0.00 62 1015.2
20260508051533 12 360 0.0 0.0 0.00 1.75 0.00 61 1015.0
20260508050030 12 360 0.0 0.0 0.00 1.75 0.00 59 1014.9
20260508044527 12 360 0.0 0.0 0.00 1.75 0.00 58 1014.8
20260508043023 13 360 0.0 0.0 0.00 1.75 0.00 56 1014.7
20260508041521 13 360 0.0 0.0 0.00 2.16 0.00 56 1014.7
20260508040023 14 360 0.0 0.0 0.00 2.16 0.00 55 1014.6
20260508034518 14 254 0.0 0.0 0.00 2.16 0.00 54 1014.6
20260508033016 14 360 0.0 3.2 0.00 2.16 0.00 56 1014.5
20260508031522 14 360 0.0 0.0 0.00 2.69 0.00 54 1014.5
20260508030014 15 360 0.0 0.0 0.00 2.69 0.00 54 1014.6
20260508024509 15 360 0.0 1.6 0.00 2.69 0.00 54 1014.3
20260508023014 15 360 0.0 1.6 0.00 2.69 0.00 55 1014.3
20260508021503 15 360 0.0 4.8 0.00 3.58 0.00 55 1013.9
20260507201501 25 125 1.6 6.4 0.00 4.14 0.00 49 1007.5
20260507200104 25 306 1.6 8.0 0.00 4.14 0.00 48 1007.7
20260507194557 25 167 1.6 12.9 0.00 4.14 0.00 46 1007.8
20260507193052 25 184 1.6 6.4 0.00 4.14 0.00 45 1008.0
20260507191551 25 333 3.2 8.0 0.00 4.14 0.00 42 1008.3
20260507190044 25 315 1.6 6.4 0.00 4.14 0.00 37 1008.7